Anzahl Datensätze: 282
min. Temperatur: -1.6 °C
max. Temperatur: 5.2 °C
max. Windgeschwindigkeit: 4.0 km/h
Niederschlagsumme: 0.2 mm
| Datum |
Zeit |
Temp °C |
Feuchte % |
Taupunkt °C |
Luftdruck hPa |
Wind km/h |
Windrichtung |
Strahlung w/m² |
Niederschlag mm |
|---|---|---|---|---|---|---|---|---|---|
| 26.11.2025 | 00:01 | 3.5 | 91 | 2.2 | 1012.5 | 1.3 | NNW | 0 | 0.0 |
| 26.11.2025 | 00:06 | 3.5 | 91 | 2.2 | 1012.5 | 1.8 | NW | 0 | 0.0 |
| 26.11.2025 | 00:12 | 3.6 | 91 | 2.3 | 1012.5 | 3.6 | W | 0 | 0.0 |
| 26.11.2025 | 00:17 | 3.6 | 91 | 2.3 | 1012.6 | 1.8 | NW | 0 | 0.0 |
| 26.11.2025 | 00:22 | 3.7 | 91 | 2.4 | 1012.6 | 0.9 | NW | 0 | 0.0 |
| 26.11.2025 | 00:27 | 3.7 | 91 | 2.4 | 1012.6 | 0.4 | WNW | 0 | 0.0 |
| 26.11.2025 | 00:32 | 3.8 | 91 | 2.5 | 1012.7 | 0.4 | N | 0 | 0.0 |
| 26.11.2025 | 00:37 | 3.8 | 91 | 2.5 | 1012.7 | 0.9 | NW | 0 | 0.0 |
| 26.11.2025 | 00:42 | 3.8 | 91 | 2.5 | 1012.8 | 1.3 | NW | 0 | 0.0 |
| 26.11.2025 | 00:47 | 3.8 | 91 | 2.5 | 1012.8 | 0.4 | NW | 0 | 0.0 |
| 26.11.2025 | 00:52 | 3.8 | 91 | 2.5 | 1012.8 | 0.0 | NW | 0 | 0.0 |
| 26.11.2025 | 00:57 | 3.8 | 91 | 2.5 | 1012.8 | 0.4 | NW | 0 | 0.0 |
| 26.11.2025 | 01:02 | 3.8 | 91 | 2.5 | 1012.9 | 1.3 | NW | 0 | 0.0 |
| 26.11.2025 | 01:07 | 3.8 | 91 | 2.5 | 1012.8 | 0.4 | NW | 0 | 0.0 |
| 26.11.2025 | 01:12 | 3.8 | 91 | 2.5 | 1012.9 | 0.4 | NW | 0 | 0.0 |
| 26.11.2025 | 01:17 | 3.8 | 91 | 2.5 | 1012.9 | 0.9 | NW | 0 | 0.0 |
| 26.11.2025 | 01:22 | 3.8 | 91 | 2.5 | 1012.9 | 0.4 | NW | 0 | 0.0 |
| 26.11.2025 | 01:27 | 3.8 | 91 | 2.5 | 1013.0 | 0.4 | NW | 0 | 0.0 |
| 26.11.2025 | 01:32 | 3.8 | 91 | 2.5 | 1013.0 | 0.0 | NW | 0 | 0.0 |
| 26.11.2025 | 01:37 | 3.8 | 91 | 2.5 | 1013.0 | 0.4 | NW | 0 | 0.0 |
| 26.11.2025 | 01:42 | 3.8 | 91 | 2.5 | 1013.1 | 0.0 | NW | 0 | 0.0 |
| 26.11.2025 | 01:47 | 3.8 | 91 | 2.5 | 1013.1 | 0.0 | NW | 0 | 0.0 |
| 26.11.2025 | 01:52 | 3.8 | 91 | 2.5 | 1013.2 | 0.4 | NNW | 0 | 0.0 |
| 26.11.2025 | 01:57 | 3.8 | 91 | 2.5 | 1013.2 | 0.9 | NW | 0 | 0.0 |
| 26.11.2025 | 02:02 | 3.8 | 91 | 2.5 | 1013.3 | 0.9 | NW | 0 | 0.0 |
| 26.11.2025 | 02:07 | 3.8 | 91 | 2.5 | 1013.3 | 0.9 | NW | 0 | 0.0 |
| 26.11.2025 | 02:12 | 3.8 | 90 | 2.3 | 1013.4 | 0.9 | NW | 0 | 0.0 |
| 26.11.2025 | 02:17 | 3.8 | 90 | 2.3 | 1013.4 | 0.4 | NW | 0 | 0.0 |
| 26.11.2025 | 02:22 | 3.7 | 90 | 2.2 | 1013.5 | 0.9 | NNW | 0 | 0.0 |
| 26.11.2025 | 02:27 | 3.7 | 90 | 2.2 | 1013.6 | 0.4 | NW | 0 | 0.0 |
| 26.11.2025 | 02:32 | 3.7 | 90 | 2.2 | 1013.6 | 0.4 | NW | 0 | 0.0 |
| 26.11.2025 | 02:37 | 3.7 | 90 | 2.2 | 1013.7 | 0.0 | NW | 0 | 0.0 |
| 26.11.2025 | 02:42 | 3.7 | 90 | 2.2 | 1013.7 | 0.4 | NW | 0 | 0.0 |
| 26.11.2025 | 02:47 | 3.6 | 90 | 2.1 | 1013.7 | 1.8 | NW | 0 | 0.0 |
| 26.11.2025 | 02:52 | 3.6 | 90 | 2.1 | 1013.7 | 0.9 | NW | 0 | 0.0 |
| 26.11.2025 | 02:57 | 3.6 | 90 | 2.1 | 1013.8 | 0.0 | W | 0 | 0.0 |
| 26.11.2025 | 03:02 | 3.6 | 90 | 2.1 | 1013.9 | 1.8 | NW | 0 | 0.0 |
| 26.11.2025 | 03:07 | 3.6 | 90 | 2.1 | 1013.9 | 0.4 | NNW | 0 | 0.0 |
| 26.11.2025 | 03:12 | 3.5 | 90 | 2.0 | 1014.0 | 1.8 | NW | 0 | 0.0 |
| 26.11.2025 | 03:18 | 3.5 | 90 | 2.0 | 1014.0 | 0.0 | NW | 0 | 0.0 |
| 26.11.2025 | 03:23 | 3.5 | 90 | 2.0 | 1014.1 | 0.0 | NW | 0 | 0.0 |
| 26.11.2025 | 03:28 | 3.5 | 90 | 2.0 | 1014.1 | 0.4 | NNW | 0 | 0.0 |
| 26.11.2025 | 03:33 | 3.5 | 90 | 2.0 | 1014.1 | 0.4 | WNW | 0 | 0.0 |
| 26.11.2025 | 03:38 | 3.5 | 90 | 2.0 | 1014.1 | 0.9 | NW | 0 | 0.0 |
| 26.11.2025 | 03:43 | 3.5 | 90 | 2.0 | 1014.0 | 0.4 | NNW | 0 | 0.0 |
| 26.11.2025 | 03:48 | 3.5 | 90 | 2.0 | 1014.1 | 0.4 | NNW | 0 | 0.0 |
| 26.11.2025 | 03:53 | 3.5 | 90 | 2.0 | 1014.1 | 0.0 | NNW | 0 | 0.0 |
| 26.11.2025 | 03:58 | 3.4 | 90 | 1.9 | 1014.1 | 0.9 | NW | 0 | 0.0 |
| 26.11.2025 | 04:03 | 3.4 | 90 | 1.9 | 1014.1 | 0.9 | NW | 0 | 0.0 |
| 26.11.2025 | 04:08 | 3.4 | 90 | 1.9 | 1014.2 | 0.4 | NW | 0 | 0.0 |
| 26.11.2025 | 04:13 | 3.4 | 90 | 1.9 | 1014.3 | 0.4 | NW | 0 | 0.0 |
| 26.11.2025 | 04:18 | 3.4 | 90 | 1.9 | 1014.4 | 0.0 | W | 0 | 0.0 |
| 26.11.2025 | 04:23 | 3.4 | 90 | 1.9 | 1014.4 | 0.4 | NW | 0 | 0.0 |
| 26.11.2025 | 04:28 | 3.4 | 90 | 1.9 | 1014.4 | 0.9 | WNW | 0 | 0.0 |
| 26.11.2025 | 04:33 | 3.4 | 90 | 1.9 | 1014.5 | 0.4 | NW | 0 | 0.0 |
| 26.11.2025 | 04:38 | 3.4 | 90 | 1.9 | 1014.4 | 0.9 | NW | 0 | 0.0 |
| 26.11.2025 | 04:43 | 3.4 | 90 | 1.9 | 1014.5 | 0.9 | NW | 0 | 0.0 |
| 26.11.2025 | 04:48 | 3.4 | 90 | 1.9 | 1014.5 | 1.3 | NNW | 0 | 0.0 |
| 26.11.2025 | 04:53 | 3.4 | 90 | 1.9 | 1014.6 | 0.0 | W | 0 | 0.0 |
| 26.11.2025 | 04:58 | 3.5 | 90 | 2.0 | 1014.6 | 0.4 | NW | 0 | 0.0 |
| 26.11.2025 | 05:03 | 3.5 | 90 | 2.0 | 1014.6 | 0.0 | NW | 0 | 0.0 |
| 26.11.2025 | 05:08 | 3.5 | 90 | 2.0 | 1014.7 | 0.0 | NW | 0 | 0.0 |
| 26.11.2025 | 05:13 | 3.5 | 90 | 2.0 | 1014.8 | 0.4 | NW | 0 | 0.0 |
| 26.11.2025 | 05:18 | 3.5 | 90 | 2.0 | 1014.8 | 0.4 | NW | 0 | 0.0 |
| 26.11.2025 | 05:23 | 3.5 | 90 | 2.0 | 1014.8 | 0.0 | NW | 0 | 0.0 |
| 26.11.2025 | 05:28 | 3.5 | 90 | 2.0 | 1014.9 | 0.0 | NW | 0 | 0.0 |
| 26.11.2025 | 05:33 | 3.5 | 90 | 2.0 | 1015.0 | 0.4 | NW | 0 | 0.0 |
| 26.11.2025 | 05:38 | 3.5 | 90 | 2.0 | 1015.1 | 0.9 | NW | 0 | 0.0 |
| 26.11.2025 | 05:43 | 3.5 | 90 | 2.0 | 1015.2 | 0.9 | NW | 0 | 0.0 |
| 26.11.2025 | 05:48 | 3.6 | 90 | 2.1 | 1015.3 | 1.3 | NNW | 0 | 0.0 |
| 26.11.2025 | 05:53 | 3.6 | 90 | 2.1 | 1015.3 | 0.4 | NW | 0 | 0.0 |
| 26.11.2025 | 05:58 | 3.6 | 90 | 2.1 | 1015.4 | 1.3 | W | 0 | 0.0 |
| 26.11.2025 | 06:03 | 3.6 | 90 | 2.1 | 1015.4 | 0.0 | NW | 0 | 0.0 |
| 26.11.2025 | 06:08 | 3.6 | 90 | 2.1 | 1015.5 | 0.4 | NW | 0 | 0.0 |
| 26.11.2025 | 06:13 | 3.6 | 90 | 2.1 | 1015.6 | 0.9 | NW | 0 | 0.0 |
| 26.11.2025 | 06:18 | 3.6 | 90 | 2.1 | 1015.6 | 0.9 | NW | 0 | 0.0 |
| 26.11.2025 | 06:24 | 3.6 | 90 | 2.1 | 1015.7 | 0.0 | NW | 0 | 0.0 |
| 26.11.2025 | 06:29 | 3.6 | 90 | 2.1 | 1015.8 | 0.4 | NW | 0 | 0.0 |
| 26.11.2025 | 06:34 | 3.6 | 90 | 2.1 | 1015.9 | 0.9 | NNW | 0 | 0.0 |
| 26.11.2025 | 06:39 | 3.6 | 90 | 2.1 | 1015.9 | 0.4 | NW | 0 | 0.0 |
| 26.11.2025 | 06:44 | 3.6 | 90 | 2.1 | 1016.0 | 1.3 | NW | 0 | 0.0 |
| 26.11.2025 | 06:49 | 3.6 | 90 | 2.1 | 1016.0 | 2.2 | NW | 0 | 0.0 |
| 26.11.2025 | 06:54 | 3.7 | 90 | 2.2 | 1015.9 | 0.9 | NNW | 0 | 0.0 |
| 26.11.2025 | 06:59 | 3.6 | 90 | 2.1 | 1015.9 | 3.1 | NW | 0 | 0.0 |
| 26.11.2025 | 07:04 | 3.6 | 90 | 2.1 | 1015.9 | 1.8 | NW | 0 | 0.0 |
| 26.11.2025 | 07:09 | 3.5 | 90 | 2.0 | 1016.0 | 0.9 | NW | 0 | 0.0 |
| 26.11.2025 | 07:14 | 3.5 | 90 | 2.0 | 1016.1 | 0.4 | NW | 0 | 0.0 |
| 26.11.2025 | 07:19 | 3.4 | 90 | 1.9 | 1016.2 | 0.9 | NW | 0 | 0.0 |
| 26.11.2025 | 07:24 | 3.4 | 90 | 1.9 | 1016.4 | 0.0 | NW | 0 | 0.0 |
| 26.11.2025 | 07:29 | 3.3 | 90 | 1.8 | 1016.3 | 0.4 | NW | 0 | 0.0 |
| 26.11.2025 | 07:34 | 3.3 | 90 | 1.8 | 1016.5 | 0.4 | NW | 0 | 0.0 |
| 26.11.2025 | 07:39 | 3.3 | 90 | 1.8 | 1016.5 | 0.0 | NW | 0 | 0.0 |
| 26.11.2025 | 07:44 | 3.3 | 90 | 1.8 | 1016.6 | 0.4 | NW | 0 | 0.0 |
| 26.11.2025 | 07:49 | 3.3 | 90 | 1.8 | 1016.7 | 0.4 | NW | 0 | 0.0 |
| 26.11.2025 | 07:54 | 3.3 | 90 | 1.8 | 1016.8 | 0.4 | NW | 0 | 0.0 |
| 26.11.2025 | 07:59 | 3.3 | 90 | 1.8 | 1017.0 | 0.4 | NW | 0 | 0.0 |
| 26.11.2025 | 08:04 | 3.3 | 90 | 1.8 | 1017.1 | 0.4 | NW | 0 | 0.0 |
| 26.11.2025 | 08:09 | 3.4 | 90 | 1.9 | 1017.2 | 0.4 | NW | 0 | 0.0 |
| 26.11.2025 | 08:14 | 3.4 | 90 | 1.9 | 1017.3 | 0.9 | NW | 5 | 0.0 |
| 26.11.2025 | 08:19 | 3.4 | 90 | 1.9 | 1017.4 | 0.0 | NW | 0 | 0.0 |
| 26.11.2025 | 08:24 | 3.4 | 90 | 1.9 | 1017.4 | 0.9 | NW | 5 | 0.0 |
| 26.11.2025 | 08:29 | 3.4 | 90 | 1.9 | 1017.4 | 0.9 | NW | 7 | 0.0 |
| 26.11.2025 | 08:34 | 3.4 | 90 | 1.9 | 1017.6 | 0.4 | NW | 11 | 0.0 |
| 26.11.2025 | 08:39 | 3.4 | 90 | 1.9 | 1017.6 | 0.4 | NW | 21 | 0.0 |
| 26.11.2025 | 08:44 | 3.4 | 90 | 1.9 | 1017.6 | 0.4 | NW | 23 | 0.0 |
| 26.11.2025 | 08:49 | 3.4 | 90 | 1.9 | 1017.7 | 0.9 | WNW | 23 | 0.0 |
| 26.11.2025 | 08:54 | 3.4 | 90 | 1.9 | 1017.7 | 0.4 | NW | 30 | 0.0 |
| 26.11.2025 | 08:59 | 3.5 | 90 | 2.0 | 1017.8 | 1.3 | NW | 40 | 0.0 |
| 26.11.2025 | 09:04 | 3.5 | 90 | 2.0 | 1017.9 | 1.3 | NW | 23 | 0.0 |
| 26.11.2025 | 09:10 | 3.5 | 90 | 2.0 | 1018.2 | 1.3 | NW | 39 | 0.0 |
| 26.11.2025 | 09:15 | 3.6 | 90 | 2.1 | 1018.2 | 0.4 | NW | 39 | 0.0 |
| 26.11.2025 | 09:20 | 3.6 | 90 | 2.1 | 1018.2 | 0.9 | NNW | 42 | 0.0 |
| 26.11.2025 | 09:25 | 3.7 | 90 | 2.2 | 1018.3 | 0.4 | NW | 53 | 0.0 |
| 26.11.2025 | 09:30 | 3.8 | 90 | 2.3 | 1018.4 | 1.3 | NNW | 47 | 0.0 |
| 26.11.2025 | 09:35 | 3.8 | 90 | 2.3 | 1018.5 | 0.4 | NW | 49 | 0.0 |
| 26.11.2025 | 09:40 | 3.8 | 90 | 2.3 | 1018.5 | 0.0 | NNW | 77 | 0.0 |
| 26.11.2025 | 09:45 | 3.9 | 90 | 2.4 | 1018.6 | 1.8 | WNW | 65 | 0.0 |
| 26.11.2025 | 09:50 | 4.0 | 90 | 2.5 | 1018.6 | 0.4 | NNW | 169 | 0.0 |
| 26.11.2025 | 09:55 | 4.1 | 90 | 2.6 | 1018.6 | 1.8 | N | 192 | 0.0 |
| 26.11.2025 | 10:00 | 4.4 | 90 | 2.9 | 1018.8 | 0.9 | NW | 167 | 0.0 |
| 26.11.2025 | 10:05 | 4.5 | 90 | 3.0 | 1018.8 | 0.4 | WNW | 171 | 0.0 |
| 26.11.2025 | 10:10 | 4.5 | 90 | 3.0 | 1019.0 | 1.3 | NW | 56 | 0.0 |
| 26.11.2025 | 10:15 | 4.4 | 90 | 2.9 | 1019.0 | 0.4 | NNW | 88 | 0.0 |
| 26.11.2025 | 10:20 | 4.3 | 90 | 2.8 | 1019.1 | 0.9 | N | 74 | 0.0 |
| 26.11.2025 | 10:25 | 4.3 | 90 | 2.8 | 1019.1 | 0.4 | NNW | 76 | 0.0 |
| 26.11.2025 | 10:30 | 4.3 | 90 | 2.8 | 1019.1 | 0.9 | NNW | 93 | 0.0 |
| 26.11.2025 | 10:35 | 4.3 | 90 | 2.8 | 1019.2 | 0.0 | NW | 70 | 0.0 |
| 26.11.2025 | 10:40 | 4.3 | 90 | 2.8 | 1019.3 | 0.4 | NW | 76 | 0.0 |
| 26.11.2025 | 10:45 | 4.4 | 90 | 2.9 | 1019.3 | 1.3 | NW | 90 | 0.0 |
| 26.11.2025 | 10:50 | 4.4 | 90 | 2.9 | 1019.4 | 0.4 | NW | 88 | 0.0 |
| 26.11.2025 | 10:55 | 4.4 | 90 | 2.9 | 1019.5 | 0.0 | NNW | 97 | 0.0 |
| 26.11.2025 | 11:00 | 4.4 | 90 | 2.9 | 1019.5 | 0.4 | NW | 114 | 0.0 |
| 26.11.2025 | 11:05 | 4.5 | 90 | 3.0 | 1019.5 | 0.0 | N | 118 | 0.0 |
| 26.11.2025 | 11:10 | 4.5 | 90 | 3.0 | 1019.5 | 0.9 | NNO | 104 | 0.0 |
| 26.11.2025 | 11:15 | 4.5 | 90 | 3.0 | 1019.5 | 1.3 | NO | 128 | 0.0 |
| 26.11.2025 | 11:20 | 4.5 | 89 | 2.8 | 1019.6 | 0.9 | NNO | 139 | 0.0 |
| 26.11.2025 | 11:25 | 4.5 | 90 | 3.0 | 1019.5 | 0.4 | NO | 141 | 0.0 |
| 26.11.2025 | 11:30 | 4.6 | 89 | 2.9 | 1019.5 | 0.9 | NO | 148 | 0.0 |
| 26.11.2025 | 11:35 | 4.6 | 89 | 2.9 | 1019.5 | 0.4 | NNO | 134 | 0.0 |
| 26.11.2025 | 11:40 | 4.7 | 89 | 3.0 | 1019.5 | 1.3 | N | 123 | 0.0 |
| 26.11.2025 | 11:45 | 4.7 | 89 | 3.0 | 1019.5 | 0.9 | NW | 128 | 0.0 |
| 26.11.2025 | 11:50 | 4.7 | 89 | 3.0 | 1019.5 | 1.3 | NO | 149 | 0.0 |
| 26.11.2025 | 11:56 | 4.7 | 88 | 2.9 | 1019.5 | 0.4 | NNW | 130 | 0.2 |
| 26.11.2025 | 12:01 | 4.8 | 88 | 3.0 | 1019.5 | 1.3 | NNW | 142 | 0.2 |
| 26.11.2025 | 12:06 | 4.8 | 88 | 3.0 | 1019.5 | 0.4 | NNO | 130 | 0.2 |
| 26.11.2025 | 12:11 | 4.8 | 88 | 3.0 | 1019.5 | 0.9 | WNW | 144 | 0.2 |
| 26.11.2025 | 12:16 | 4.9 | 88 | 3.1 | 1019.5 | 0.4 | WNW | 137 | 0.2 |
| 26.11.2025 | 12:21 | 5.0 | 88 | 3.2 | 1019.5 | 1.8 | NW | 141 | 0.2 |
| 26.11.2025 | 12:26 | 5.1 | 88 | 3.3 | 1019.6 | 0.4 | NNW | 141 | 0.2 |
| 26.11.2025 | 12:31 | 5.1 | 87 | 3.1 | 1019.7 | 0.4 | NW | 142 | 0.2 |
| 26.11.2025 | 12:36 | 5.1 | 87 | 3.1 | 1019.8 | 0.4 | NW | 130 | 0.2 |
| 26.11.2025 | 12:41 | 5.1 | 86 | 3.0 | 1019.8 | 0.4 | NNW | 128 | 0.2 |
| 26.11.2025 | 12:46 | 5.1 | 86 | 3.0 | 1019.7 | 0.9 | NW | 102 | 0.2 |
| 26.11.2025 | 12:51 | 5.2 | 86 | 3.1 | 1019.6 | 0.4 | NW | 90 | 0.2 |
| 26.11.2025 | 12:56 | 5.1 | 86 | 3.0 | 1019.7 | 0.9 | NNW | 79 | 0.2 |
| 26.11.2025 | 13:01 | 5.1 | 85 | 2.8 | 1019.8 | 0.9 | NW | 81 | 0.2 |
| 26.11.2025 | 13:06 | 5.0 | 84 | 2.5 | 1019.8 | 0.4 | NW | 91 | 0.2 |
| 26.11.2025 | 13:11 | 5.0 | 84 | 2.5 | 1019.8 | 0.4 | NW | 100 | 0.2 |
| 26.11.2025 | 13:16 | 5.0 | 84 | 2.5 | 1019.8 | 0.0 | WNW | 105 | 0.2 |
| 26.11.2025 | 13:21 | 5.1 | 83 | 2.5 | 1019.8 | 0.4 | NW | 128 | 0.2 |
| 26.11.2025 | 13:26 | 5.1 | 83 | 2.5 | 1019.9 | 0.4 | NW | 114 | 0.2 |
| 26.11.2025 | 13:31 | 5.1 | 83 | 2.5 | 1020.0 | 1.3 | NNO | 83 | 0.2 |
| 26.11.2025 | 13:36 | 5.1 | 83 | 2.5 | 1020.1 | 0.9 | NW | 74 | 0.2 |
| 26.11.2025 | 13:41 | 5.1 | 83 | 2.5 | 1020.1 | 0.4 | NNW | 81 | 0.2 |
| 26.11.2025 | 13:46 | 5.0 | 83 | 2.4 | 1020.1 | 0.4 | NNW | 79 | 0.2 |
| 26.11.2025 | 13:51 | 5.0 | 83 | 2.4 | 1020.1 | 0.9 | NW | 72 | 0.2 |
| 26.11.2025 | 13:56 | 5.0 | 82 | 2.2 | 1020.1 | 0.4 | NW | 74 | 0.2 |
| 26.11.2025 | 14:01 | 4.9 | 82 | 2.1 | 1020.1 | 1.3 | NW | 76 | 0.2 |
| 26.11.2025 | 14:06 | 4.9 | 83 | 2.3 | 1020.1 | 0.4 | NW | 76 | 0.2 |
| 26.11.2025 | 14:11 | 4.9 | 82 | 2.1 | 1020.0 | 0.9 | NW | 65 | 0.2 |
| 26.11.2025 | 14:16 | 4.9 | 82 | 2.1 | 1020.0 | 0.0 | NW | 58 | 0.2 |
| 26.11.2025 | 14:21 | 4.9 | 82 | 2.1 | 1020.0 | 0.0 | NW | 54 | 0.2 |
| 26.11.2025 | 14:26 | 4.9 | 82 | 2.1 | 1020.0 | 0.4 | NW | 47 | 0.2 |
| 26.11.2025 | 14:31 | 4.9 | 82 | 2.1 | 1020.1 | 0.4 | NW | 44 | 0.2 |
| 26.11.2025 | 14:36 | 4.9 | 83 | 2.3 | 1020.0 | 0.4 | NW | 49 | 0.2 |
| 26.11.2025 | 14:41 | 4.9 | 82 | 2.1 | 1020.0 | 0.4 | NW | 49 | 0.2 |
| 26.11.2025 | 14:47 | 4.9 | 83 | 2.3 | 1020.1 | 0.0 | NNW | 40 | 0.2 |
| 26.11.2025 | 14:52 | 4.9 | 83 | 2.3 | 1020.0 | 0.4 | NW | 39 | 0.2 |
| 26.11.2025 | 14:57 | 4.9 | 83 | 2.3 | 1020.0 | 0.0 | NNW | 37 | 0.2 |
| 26.11.2025 | 15:02 | 4.8 | 83 | 2.2 | 1020.0 | 0.0 | WNW | 40 | 0.2 |
| 26.11.2025 | 15:07 | 4.8 | 83 | 2.2 | 1020.1 | 0.4 | NW | 35 | 0.2 |
| 26.11.2025 | 15:12 | 4.7 | 83 | 2.1 | 1020.2 | 0.4 | NW | 30 | 0.2 |
| 26.11.2025 | 15:17 | 4.6 | 83 | 2.0 | 1020.2 | 0.4 | NW | 35 | 0.2 |
| 26.11.2025 | 15:22 | 4.6 | 84 | 2.1 | 1020.3 | 0.4 | WNW | 40 | 0.2 |
| 26.11.2025 | 15:27 | 4.5 | 84 | 2.0 | 1020.3 | 0.4 | NW | 44 | 0.2 |
| 26.11.2025 | 15:32 | 4.5 | 84 | 2.0 | 1020.3 | 0.4 | NW | 39 | 0.2 |
| 26.11.2025 | 15:37 | 4.5 | 84 | 2.0 | 1020.4 | 0.4 | NW | 26 | 0.2 |
| 26.11.2025 | 15:42 | 4.5 | 84 | 2.0 | 1020.4 | 0.0 | NW | 19 | 0.2 |
| 26.11.2025 | 15:47 | 4.4 | 84 | 1.9 | 1020.5 | 0.4 | NW | 23 | 0.2 |
| 26.11.2025 | 15:52 | 4.4 | 84 | 1.9 | 1020.6 | 0.4 | NW | 18 | 0.2 |
| 26.11.2025 | 15:57 | 4.4 | 84 | 1.9 | 1020.6 | 0.9 | NW | 9 | 0.2 |
| 26.11.2025 | 16:02 | 4.4 | 84 | 1.9 | 1020.6 | 0.4 | NW | 7 | 0.2 |
| 26.11.2025 | 16:07 | 4.3 | 84 | 1.8 | 1020.6 | 1.3 | WNW | 7 | 0.2 |
| 26.11.2025 | 16:12 | 4.3 | 84 | 1.8 | 1020.6 | 0.9 | NW | 11 | 0.2 |
| 26.11.2025 | 16:17 | 4.2 | 84 | 1.7 | 1020.7 | 1.3 | NW | 11 | 0.2 |
| 26.11.2025 | 16:22 | 4.1 | 84 | 1.6 | 1020.8 | 0.9 | WNW | 7 | 0.2 |
| 26.11.2025 | 16:27 | 4.1 | 85 | 1.8 | 1020.8 | 0.4 | NW | 0 | 0.2 |
| 26.11.2025 | 16:32 | 4.0 | 85 | 1.7 | 1020.9 | 1.3 | NW | 0 | 0.2 |
| 26.11.2025 | 16:37 | 4.0 | 85 | 1.7 | 1020.9 | 0.4 | WSW | 0 | 0.2 |
| 26.11.2025 | 16:42 | 4.0 | 85 | 1.7 | 1020.9 | 0.4 | NW | 0 | 0.2 |
| 26.11.2025 | 16:47 | 3.9 | 84 | 1.4 | 1020.8 | 0.4 | NW | 0 | 0.2 |
| 26.11.2025 | 16:52 | 3.8 | 84 | 1.3 | 1020.9 | 0.0 | NW | 0 | 0.2 |
| 26.11.2025 | 16:57 | 3.8 | 84 | 1.3 | 1020.9 | 0.0 | NW | 0 | 0.2 |
| 26.11.2025 | 17:02 | 3.8 | 84 | 1.3 | 1021.1 | 0.0 | NW | 0 | 0.2 |
| 26.11.2025 | 17:07 | 3.6 | 84 | 1.2 | 1021.1 | 0.4 | NW | 0 | 0.2 |
| 26.11.2025 | 17:12 | 3.6 | 84 | 1.2 | 1021.2 | 0.0 | NW | 0 | 0.2 |
| 26.11.2025 | 17:17 | 3.5 | 84 | 1.1 | 1021.2 | 0.4 | WNW | 0 | 0.2 |
| 26.11.2025 | 17:22 | 3.5 | 84 | 1.1 | 1021.2 | 0.0 | WNW | 0 | 0.2 |
| 26.11.2025 | 17:28 | 3.4 | 84 | 1.0 | 1021.3 | 0.0 | WNW | 0 | 0.2 |
| 26.11.2025 | 17:33 | 3.4 | 84 | 1.0 | 1021.4 | 0.4 | WNW | 0 | 0.2 |
| 26.11.2025 | 17:38 | 3.3 | 84 | 0.9 | 1021.6 | 0.0 | WNW | 0 | 0.2 |
| 26.11.2025 | 17:43 | 3.3 | 85 | 1.0 | 1021.7 | 0.0 | WNW | 0 | 0.2 |
| 26.11.2025 | 17:48 | 3.2 | 85 | 0.9 | 1021.8 | 0.0 | WNW | 0 | 0.2 |
| 26.11.2025 | 17:53 | 3.1 | 85 | 0.8 | 1021.9 | 0.0 | WNW | 0 | 0.2 |
| 26.11.2025 | 17:58 | 3.1 | 85 | 0.8 | 1022.0 | 0.4 | WNW | 0 | 0.2 |
| 26.11.2025 | 18:03 | 3.1 | 85 | 0.8 | 1022.1 | 0.9 | NW | 0 | 0.2 |
| 26.11.2025 | 18:08 | 3.1 | 85 | 0.8 | 1022.1 | 1.3 | NW | 0 | 0.2 |
| 26.11.2025 | 18:13 | 3.1 | 85 | 0.8 | 1022.2 | 0.4 | NW | 0 | 0.2 |
| 26.11.2025 | 18:18 | 3.2 | 84 | 0.8 | 1022.4 | 0.4 | NW | 0 | 0.2 |
| 26.11.2025 | 18:23 | 3.2 | 84 | 0.8 | 1022.4 | 0.9 | NW | 0 | 0.2 |
| 26.11.2025 | 18:28 | 3.2 | 84 | 0.8 | 1022.3 | 0.4 | NW | 0 | 0.2 |
| 26.11.2025 | 18:33 | 3.2 | 84 | 0.8 | 1022.5 | 0.0 | NW | 0 | 0.2 |
| 26.11.2025 | 18:38 | 3.2 | 84 | 0.8 | 1022.5 | 0.0 | NW | 0 | 0.2 |
| 26.11.2025 | 18:43 | 3.2 | 83 | 0.6 | 1022.6 | 0.0 | NW | 0 | 0.2 |
| 26.11.2025 | 18:48 | 3.2 | 83 | 0.6 | 1022.6 | 0.0 | NW | 0 | 0.2 |
| 26.11.2025 | 18:53 | 3.1 | 83 | 0.5 | 1022.6 | 0.0 | NW | 0 | 0.2 |
| 26.11.2025 | 18:58 | 3.1 | 83 | 0.5 | 1022.7 | 0.0 | NW | 0 | 0.2 |
| 26.11.2025 | 19:03 | 3.1 | 83 | 0.5 | 1022.6 | 0.0 | NW | 0 | 0.2 |
| 26.11.2025 | 19:08 | 3.1 | 83 | 0.5 | 1022.7 | 0.0 | NW | 0 | 0.2 |
| 26.11.2025 | 19:13 | 3.1 | 83 | 0.5 | 1022.7 | 0.0 | NW | 0 | 0.2 |
| 26.11.2025 | 19:18 | 3.1 | 83 | 0.5 | 1022.8 | 0.0 | NW | 0 | 0.2 |
| 26.11.2025 | 19:23 | 3.0 | 84 | 0.6 | 1022.8 | 0.0 | NW | 0 | 0.2 |
| 26.11.2025 | 19:28 | 3.0 | 84 | 0.6 | 1022.8 | 0.0 | NW | 0 | 0.2 |
| 26.11.2025 | 19:33 | 3.0 | 84 | 0.6 | 1022.8 | 0.0 | NW | 0 | 0.2 |
| 26.11.2025 | 19:38 | 3.0 | 84 | 0.6 | 1022.9 | 0.0 | NW | 0 | 0.2 |
| 26.11.2025 | 19:43 | 2.9 | 84 | 0.5 | 1022.8 | 0.0 | NW | 0 | 0.2 |
| 26.11.2025 | 19:48 | 2.9 | 85 | 0.6 | 1022.9 | 0.0 | NW | 0 | 0.2 |
| 26.11.2025 | 19:53 | 2.9 | 85 | 0.6 | 1023.0 | 0.0 | NW | 0 | 0.2 |
| 26.11.2025 | 19:58 | 2.8 | 85 | 0.5 | 1022.9 | 0.0 | NW | 0 | 0.2 |
| 26.11.2025 | 20:04 | 2.8 | 85 | 0.5 | 1023.0 | 0.0 | NW | 0 | 0.2 |
| 26.11.2025 | 20:09 | 2.7 | 85 | 0.4 | 1023.0 | 0.0 | NW | 0 | 0.2 |
| 26.11.2025 | 20:14 | 2.6 | 86 | 0.5 | 1022.9 | 0.0 | NW | 0 | 0.2 |
| 26.11.2025 | 20:19 | 2.6 | 86 | 0.5 | 1023.0 | 0.0 | NW | 0 | 0.2 |
| 26.11.2025 | 20:24 | 2.5 | 86 | 0.4 | 1023.0 | 0.0 | NW | 0 | 0.2 |
| 26.11.2025 | 20:29 | 2.5 | 86 | 0.4 | 1023.0 | 0.0 | NW | 0 | 0.2 |
| 26.11.2025 | 20:34 | 2.4 | 86 | 0.3 | 1023.0 | 0.0 | NW | 0 | 0.2 |
| 26.11.2025 | 20:39 | 2.3 | 86 | 0.2 | 1023.2 | 0.0 | NW | 0 | 0.2 |
| 26.11.2025 | 20:44 | 2.2 | 86 | 0.1 | 1023.3 | 0.0 | NW | 0 | 0.2 |
| 26.11.2025 | 20:49 | 2.1 | 86 | 0.0 | 1023.2 | 0.0 | NW | 0 | 0.2 |
| 26.11.2025 | 20:54 | 2.0 | 86 | -0.1 | 1023.3 | 0.0 | NW | 0 | 0.2 |
| 26.11.2025 | 21:04 | 1.9 | 87 | 0.0 | 1023.3 | 0.0 | NW | 0 | 0.2 |
| 26.11.2025 | 21:09 | 1.9 | 87 | 0.0 | 1023.2 | 0.4 | NW | 0 | 0.2 |
| 26.11.2025 | 21:14 | 1.8 | 87 | -0.1 | 1023.2 | 0.0 | NW | 0 | 0.2 |
| 26.11.2025 | 21:24 | 1.6 | 87 | -0.3 | 1023.1 | 0.0 | NW | 0 | 0.2 |
| 26.11.2025 | 21:29 | 1.5 | 87 | -0.4 | 1023.2 | 0.0 | NW | 0 | 0.2 |
| 26.11.2025 | 21:34 | 1.3 | 87 | -0.6 | 1023.2 | 0.0 | NW | 0 | 0.2 |
| 26.11.2025 | 21:39 | 1.2 | 87 | -0.7 | 1023.2 | 0.0 | NW | 0 | 0.2 |
| 26.11.2025 | 21:44 | 1.0 | 87 | -0.9 | 1023.3 | 0.0 | NW | 0 | 0.2 |
| 26.11.2025 | 21:54 | 0.6 | 87 | -1.3 | 1023.4 | 0.0 | NW | 0 | 0.2 |
| 26.11.2025 | 21:59 | 0.5 | 88 | -1.3 | 1023.4 | 0.0 | NW | 0 | 0.2 |
| 26.11.2025 | 22:04 | 0.3 | 88 | -1.5 | 1023.4 | 0.0 | NW | 0 | 0.2 |
| 26.11.2025 | 22:09 | 0.1 | 88 | -1.7 | 1023.4 | 0.0 | NW | 0 | 0.2 |
| 26.11.2025 | 22:14 | -0.1 | 88 | -1.8 | 1023.4 | 0.0 | NW | 0 | 0.2 |
| 26.11.2025 | 22:19 | -0.2 | 88 | -1.9 | 1023.4 | 0.0 | NW | 0 | 0.2 |
| 26.11.2025 | 22:29 | -0.4 | 89 | -2.0 | 1023.4 | 0.0 | NW | 0 | 0.2 |
| 26.11.2025 | 22:34 | -0.5 | 89 | -2.1 | 1023.3 | 0.0 | NW | 0 | 0.2 |
| 26.11.2025 | 22:39 | -0.6 | 89 | -2.2 | 1023.4 | 0.0 | NW | 0 | 0.2 |
| 26.11.2025 | 22:45 | -0.7 | 89 | -2.3 | 1023.4 | 0.0 | NW | 0 | 0.2 |
| 26.11.2025 | 22:50 | -0.9 | 89 | -2.5 | 1023.4 | 0.0 | NW | 0 | 0.2 |
| 26.11.2025 | 22:55 | -1.0 | 89 | -2.6 | 1023.4 | 0.0 | NW | 0 | 0.2 |
| 26.11.2025 | 23:00 | -1.0 | 89 | -2.6 | 1023.3 | 0.0 | NW | 0 | 0.2 |
| 26.11.2025 | 23:05 | -1.1 | 89 | -2.7 | 1023.3 | 0.0 | NW | 0 | 0.2 |
| 26.11.2025 | 23:10 | -1.1 | 89 | -2.7 | 1023.3 | 0.0 | NW | 0 | 0.2 |
| 26.11.2025 | 23:15 | -1.2 | 89 | -2.8 | 1023.3 | 0.0 | NW | 0 | 0.2 |
| 26.11.2025 | 23:20 | -1.2 | 89 | -2.8 | 1023.3 | 0.0 | NW | 0 | 0.2 |
| 26.11.2025 | 23:25 | -1.4 | 89 | -3.0 | 1023.3 | 0.0 | NW | 0 | 0.2 |
| 26.11.2025 | 23:30 | -1.4 | 90 | -2.8 | 1023.4 | 0.0 | NW | 0 | 0.2 |
| 26.11.2025 | 23:35 | -1.5 | 90 | -2.9 | 1023.4 | 0.0 | NW | 0 | 0.2 |
| 26.11.2025 | 23:40 | -1.5 | 90 | -2.9 | 1023.5 | 0.0 | NW | 0 | 0.2 |
| 26.11.2025 | 23:45 | -1.6 | 90 | -3.0 | 1023.5 | 0.0 | NW | 0 | 0.2 |
| 26.11.2025 | 23:50 | -1.6 | 90 | -3.0 | 1023.6 | 0.0 | NW | 0 | 0.2 |
| 26.11.2025 | 23:55 | -1.6 | 90 | -3.0 | 1023.7 | 0.0 | NW | 0 | 0.2 |